GW4724 Weather Reports


Display with metric or nautical units.
time (UTC)temp
F
wind
direction
speed
MPH
gust
MPH
rain 1hr
in
rain 24hr
in
rain mn
in
humidity
%
barometer
mb
20260504000139 55 295 0.0 0.0 0.00 0.00 0.00 43 1016.1
20260503235637 57 295 0.0 0.0 0.00 0.00 0.00 40 1016.1
20260503235133 58 294 2.0 2.0 0.00 0.00 0.00 36 1016.1
20260503234631 59 314 2.0 2.0 0.00 0.00 0.00 33 1016.0
20260503234129 59 292 1.0 3.0 0.00 0.00 0.00 34 1016.2
20260503233626 59 310 4.0 4.0 0.00 0.00 0.00 32 1016.0
20260503233121 60 322 3.0 7.0 0.00 0.00 0.00 31 1015.9
20260503232619 60 286 5.0 7.0 0.00 0.00 0.00 31 1015.9
20260503232116 60 307 2.0 10.0 0.00 0.00 0.00 32 1015.9
20260503231614 61 312 2.0 3.0 0.00 0.00 0.00 33 1015.9
20260503231110 61 336 3.0 10.0 0.00 0.00 0.00 31 1016.0
20260503230607 61 297 6.0 8.0 0.00 0.00 0.00 30 1015.8
20260503230104 61 346 4.0 8.0 0.00 0.00 0.00 30 1015.7
20260503225601 62 286 3.0 4.0 0.00 0.00 0.00 31 1015.7
20260503225056 62 303 3.0 3.0 0.00 0.00 0.00 33 1015.7
20260503224554 62 299 4.0 4.0 0.00 0.00 0.00 31 1015.7
20260503224052 62 303 3.0 8.0 0.00 0.00 0.00 30 1015.5
20260503223550 62 30 4.0 7.0 0.00 0.00 0.00 30 1015.6
20260503223045 62 352 2.0 6.0 0.00 0.00 0.00 30 1015.6
20260503222543 62 313 3.0 3.0 0.00 0.00 0.00 29 1015.7
20260503222041 62 294 6.0 7.0 0.00 0.00 0.00 30 1015.8
20260503221539 63 39 1.0 6.0 0.00 0.00 0.00 31 1015.6
20260503221036 63 282 3.0 6.0 0.00 0.00 0.00 30 1015.8
20260503220533 62 72 4.0 4.0 0.00 0.00 0.00 31 1015.8
20260503220030 62 320 4.0 9.0 0.00 0.00 0.00 31 1015.8
20260503215527 62 327 4.0 6.0 0.00 0.00 0.00 32 1015.9
20260503215024 62 302 4.0 7.0 0.00 0.00 0.00 32 1015.8
20260503214522 62 14 6.0 11.0 0.00 0.00 0.00 31 1016.0
20260503214018 62 300 4.0 9.0 0.00 0.00 0.00 31 1015.8
20260503213517 62 13 5.0 9.0 0.00 0.00 0.00 32 1016.1
20260503213013 62 351 6.0 13.0 0.00 0.00 0.00 31 1015.9
20260503212511 62 244 3.0 6.0 0.00 0.00 0.00 31 1015.7
20260503212008 62 254 3.0 7.0 0.00 0.00 0.00 30 1016.0
20260503211505 62 281 2.0 7.0 0.00 0.00 0.00 31 1015.7
20260503211000 62 289 4.0 9.0 0.00 0.00 0.00 32 1016.0
20260503210457 62 305 4.0 8.0 0.00 0.00 0.00 32 1015.9
20260503205951 62 0 4.0 10.0 0.00 0.00 0.00 30 1015.9
20260503205448 61 339 4.0 9.0 0.00 0.00 0.00 31 1015.9
20260503204944 62 337 5.0 16.0 0.00 0.00 0.00 32 1015.9
20260503204442 61 299 11.0 14.0 0.00 0.00 0.00 31 1015.9
20260503203939 62 347 7.0 11.0 0.00 0.00 0.00 32 1016.0
20260503203437 62 306 4.0 7.0 0.00 0.00 0.00 32 1015.8
20260503202933 61 335 2.0 4.0 0.00 0.00 0.00 31 1016.1
20260503202432 61 270 6.0 11.0 0.00 0.00 0.00 32 1016.1
20260503201930 62 352 3.0 15.0 0.00 0.00 0.00 31 1016.0
20260503201427 60 290 2.0 7.0 0.00 0.00 0.00 33 1016.1
20260503200924 61 257 0.0 6.0 0.00 0.00 0.00 33 1016.2
20260503200420 60 264 1.0 8.0 0.00 0.00 0.00 31 1016.3
20260503195917 61 282 5.0 7.0 0.00 0.00 0.00 33 1016.4
20260503195415 62 336 6.0 8.0 0.00 0.00 0.00 34 1016.4
20260503194911 62 332 3.0 7.0 0.00 0.00 0.00 31 1016.4
20260503194408 62 347 4.0 9.0 0.00 0.00 0.00 33 1016.4
20260503193903 61 23 5.0 10.0 0.00 0.00 0.00 30 1016.7
20260503193359 62 53 6.0 10.0 0.00 0.00 0.00 31 1016.8
20260503192855 61 60 7.0 8.0 0.00 0.00 0.00 32 1016.6
20260503192351 61 284 3.0 9.0 0.00 0.00 0.00 30 1016.9
20260503191847 61 27 3.0 9.0 0.00 0.00 0.00 34 1016.9
20260503191345 60 352 7.0 15.0 0.00 0.00 0.00 32 1017.0
20260503190841 61 318 9.0 15.0 0.00 0.00 0.00 32 1017.1
20260503190338 61 359 5.0 9.0 0.00 0.00 0.00 35 1016.8
20260503185835 61 38 6.0 8.0 0.00 0.00 0.00 32 1016.9
20260503185331 61 56 5.0 11.0 0.00 0.00 0.00 35 1017.0
20260503184831 60 264 2.0 6.0 0.00 0.00 0.00 36 1017.2
20260503184327 60 31 4.0 11.0 0.00 0.00 0.00 31 1017.2
20260503183823 60 335 5.0 8.0 0.00 0.00 0.00 33 1017.1
20260503183321 60 240 6.0 10.0 0.00 0.00 0.00 34 1017.3
20260503182818 59 304 8.0 10.0 0.00 0.00 0.00 31 1017.3
20260503182317 60 344 3.0 11.0 0.00 0.00 0.00 33 1017.5
20260503181814 59 274 11.0 13.0 0.00 0.00 0.00 31 1017.3
20260503181311 59 353 2.0 9.0 0.00 0.00 0.00 33 1017.6
20260503180807 59 326 4.0 14.0 0.00 0.00 0.00 30 1017.6
20260503180305 58 327 6.0 10.0 0.00 0.00 0.00 31 1017.6
20260503175801 58 262 5.0 9.0 0.00 0.00 0.00 34 1017.6
20260503175300 59 343 7.0 13.0 0.00 0.00 0.00 33 1017.5
20260503174755 58 53 2.0 8.0 0.00 0.00 0.00 35 1017.7
20260503174253 58 43 7.0 11.0 0.00 0.00 0.00 36 1017.7
20260503173748 57 354 4.0 15.0 0.00 0.00 0.00 33 1017.6
20260503173244 58 332 8.0 13.0 0.00 0.00 0.00 33 1017.8
20260503172741 57 341 5.0 10.0 0.00 0.00 0.00 35 1017.8
20260503172238 56 51 8.0 10.0 0.00 0.00 0.00 36 1017.8
20260503171735 56 297 7.0 14.0 0.00 0.00 0.00 36 1018.3
20260503171232 56 312 6.0 10.0 0.00 0.00 0.00 42 1018.3
20260503170729 56 303 5.0 8.0 0.00 0.00 0.00 40 1018.0
20260503170226 56 289 11.0 14.0 0.00 0.00 0.00 36 1018.3
20260503160148 53 310 6.0 9.0 0.00 0.00 0.00 40 1018.9
20260503150618 52 325 3.0 9.0 0.00 0.00 0.00 43 1019.4
20260503150114 50 349 6.0 7.0 0.00 0.00 0.00 47 1019.4
20260503131007 46 305 10.0 13.0 0.00 0.00 0.00 57 1019.7
20260503130504 47 353 4.0 9.0 0.00 0.00 0.00 54 1019.5
20260503110355 39 322 3.0 4.0 0.00 0.00 0.00 67 1018.9
20260503090246 40 354 2.0 6.0 0.00 0.00 0.00 67 1017.3
20260503081214 41 351 4.0 6.0 0.00 0.00 0.00 67 1017.2
20260503080709 41 331 1.0 4.0 0.00 0.00 0.00 67 1017.3
20260503080207 42 318 2.0 6.0 0.00 0.00 0.00 65 1017.4
20260503072643 41 284 1.0 1.0 0.00 0.00 0.00 71 1017.0
20260503072140 42 22 2.0 3.0 0.00 0.00 0.00 70 1016.8
20260503071637 42 310 2.0 4.0 0.00 0.00 0.00 70 1016.9
20260503071134 42 46 1.0 3.0 0.00 0.00 0.00 70 1017.0
20260503070631 42 345 1.0 2.0 0.00 0.00 0.00 70 1016.8
20260503070129 42 318 1.0 2.0 0.00 0.00 0.00 69 1016.7
20260503055049 43 309 1.0 3.0 0.00 0.00 0.00 66 1016.8
20260503054545 43 14 2.0 7.0 0.00 0.00 0.00 66 1016.8
20260503054042 43 36 2.0 6.0 0.00 0.00 0.00 67 1016.7
20260503053540 43 322 4.0 7.0 0.00 0.00 0.00 66 1016.9
20260503053038 43 340 1.0 6.0 0.00 0.00 0.00 67 1016.8
20260503052534 43 341 4.0 4.0 0.00 0.00 0.00 67 1016.8
20260503052031 43 22 3.0 6.0 0.00 0.00 0.00 68 1016.8
20260503051526 43 343 1.0 4.0 0.00 0.00 0.00 68 1016.8
20260503051024 43 26 2.0 4.0 0.00 0.00 0.00 68 1016.9
20260503050519 43 342 1.0 3.0 0.00 0.00 0.00 68 1016.9
20260503050018 43 315 2.0 4.0 0.00 0.00 0.00 69 1017.0
20260503045514 43 346 2.0 6.0 0.00 0.00 0.00 69 1017.1
20260503045012 43 327 2.0 7.0 0.00 0.00 0.00 68 1017.0
20260503044508 43 1 3.0 4.0 0.00 0.00 0.00 70 1016.9
20260503044006 43 38 4.0 4.0 0.00 0.00 0.00 70 1017.0
20260503043501 42 19 1.0 2.0 0.00 0.00 0.00 70 1016.9
20260503042958 42 349 0.0 3.0 0.00 0.00 0.00 70 1016.9
20260503042455 42 5 2.0 6.0 0.00 0.00 0.00 70 1017.0
20260503041952 43 36 2.0 2.0 0.00 0.00 0.00 70 1016.8
20260503041448 43 345 2.0 3.0 0.00 0.00 0.00 70 1017.0
20260503040946 43 46 2.0 6.0 0.00 0.00 0.00 69 1016.9
20260503040443 43 10 1.0 3.0 0.00 0.00 0.00 68 1016.8
20260503035940 43 28 2.0 3.0 0.00 0.00 0.00 67 1017.0
20260503035437 44 6 1.0 4.0 0.00 0.00 0.00 68 1017.0
20260503034935 44 356 2.0 3.0 0.00 0.00 0.00 67 1016.9
20260503034432 44 347 5.0 7.0 0.00 0.00 0.00 66 1016.9
20260503033929 44 343 6.0 9.0 0.00 0.00 0.00 65 1017.0
20260503033426 44 24 5.0 9.0 0.00 0.00 0.00 66 1016.8
20260503032924 44 7 4.0 10.0 0.00 0.00 0.00 65 1017.1
20260503032423 45 36 4.0 7.0 0.00 0.00 0.00 65 1017.0
20260503031920 45 43 5.0 10.0 0.00 0.00 0.00 64 1017.0
20260503031418 45 21 10.0 13.0 0.00 0.00 0.00 63 1016.9
20260503030914 45 355 3.0 9.0 0.00 0.00 0.00 65 1017.0
20260503030410 45 18 2.0 6.0 0.00 0.00 0.00 63 1017.1
20260503025907 46 27 7.0 9.0 0.00 0.00 0.00 61 1017.0
20260503025404 46 52 3.0 6.0 0.00 0.00 0.00 62 1017.2
20260503024902 46 345 2.0 8.0 0.00 0.00 0.00 62 1017.1
20260503024358 46 354 2.0 3.0 0.00 0.00 0.00 60 1017.1
20260503023855 46 24 2.0 4.0 0.00 0.00 0.00 60 1017.2
20260503023352 46 337 2.0 6.0 0.00 0.00 0.00 59 1017.2
20260503022849 46 322 4.0 4.0 0.00 0.00 0.00 59 1017.1
20260503022343 46 356 3.0 6.0 0.00 0.00 0.00 58 1017.2
20260503021840 47 16 2.0 2.0 0.00 0.00 0.00 58 1017.3
20260503021337 47 11 2.0 3.0 0.00 0.00 0.00 58 1017.0
20260503020834 47 351 3.0 7.0 0.00 0.00 0.00 57 1017.2
20260503020332 47 345 4.0 6.0 0.00 0.00 0.00 56 1017.1
20260503015828 47 40 5.0 10.0 0.00 0.00 0.00 58 1017.2
20260503015325 47 66 4.0 6.0 0.00 0.00 0.00 58 1017.0
20260503014820 47 356 3.0 7.0 0.00 0.00 0.00 58 1017.0
20260503014319 47 312 5.0 8.0 0.00 0.00 0.00 58 1017.1
20260503013816 47 10 3.0 6.0 0.00 0.00 0.00 58 1017.0
20260503013313 47 38 4.0 6.0 0.00 0.00 0.00 58 1016.9
20260503012810 47 345 1.0 3.0 0.00 0.00 0.00 59 1016.9
20260503012307 48 25 3.0 8.0 0.00 0.00 0.00 57 1016.6
20260503011804 48 49 4.0 7.0 0.00 0.00 0.00 57 1016.6
20260503011301 48 3 7.0 8.0 0.00 0.00 0.00 56 1016.6
20260503010757 48 23 3.0 4.0 0.00 0.00 0.00 57 1016.5
20260503010254 48 28 4.0 6.0 0.00 0.00 0.00 57 1016.4
20260503005752 49 42 2.0 4.0 0.00 0.00 0.00 55 1016.3
20260503005249 49 27 3.0 4.0 0.00 0.00 0.00 56 1016.2
20260503004745 49 2 3.0 7.0 0.00 0.00 0.00 54 1016.2
20260503004243 49 25 6.0 9.0 0.00 0.00 0.00 53 1016.1
20260503003740 49 346 2.0 10.0 0.00 0.00 0.00 54 1015.9
20260503003237 50 24 3.0 10.0 0.00 0.00 0.00 53 1015.8
20260503002733 50 59 8.0 9.0 0.00 0.00 0.00 53 1015.8
20260503002231 50 349 8.0 10.0 0.00 0.00 0.00 53 1015.9
20260503001726 50 48 4.0 13.0 0.00 0.00 0.00 53 1015.8
20260503001223 50 72 8.0 10.0 0.00 0.00 0.00 54 1015.8
20260503000721 51 21 7.0 9.0 0.00 0.00 0.00 54 1015.5